Погода в Иенгре

Россия / Республика Саха (Якутия)     56°13′24″N   124°50′54″E
темп.,
°C
ветер,
м/с
пор.,
м/с
влажн.,
%
обл.,
%
осадки,
мм/ч
давл.,
гПа
погр.,
м
27 февраля, сб
сб2700:00−25ююв4497100 0.0 103061
03:00−24ююв4598100 0.1 1027193
06:00−24юв4698100 0.3 1024287
09:00−23юв3797100 0.6 1021406
12:00−21вюв51096100 0.9 1018754
15:00−19вюв4695100 2.3 1015714
18:00−21св23100100 1.3 101671
21:00−24сз91694100 1.7 1018690
28 февраля, вс
вс2800:00−26ссз91789100 0.1 1021819
03:00−28ссз81791100 0.2 1025734
06:00−30ссз7159391 0.0 1028423
09:00−29ссз6169394 0.1 1031895
12:00−27ссз11178299 0.0 10321353
15:00−26ссз10137999 0.1 10321360
18:00−29сз71386100 0.0 1035286
21:00−33сз5686100 0.0 103862
1 марта, пн
пн100:00−34зсз349174 0.0 103822
03:00−34зсз338987 0.0 103919
06:00−35зсз3386100 0.0 103919
09:00−33з2285100 0.0 103820
12:00−27ссз697391 0.0 10351241
15:00−26ссз797096 0.0 10331631
18:00−30сз3479100 0.0 103321
21:00−34зюз337472 0.0 103419
2 марта, вт
вт200:00−35зюз228784 0.0 103419
03:00−36юз128850 0.0 103319
06:00−37ююз12778 0.0 103319
09:00−33ю227710 0.0 103221
12:00−27ююв45810 0.0 1028479
15:00−25ю458244 0.0 1025718
18:00−30ююв349899 0.0 102423
21:00−31ю239999 0.0 102520
3 марта, ср
ср300:00−30ююв2399100 0.1 102326
03:00−30юв2299100 0.1 102126
06:00−31юв2299100 0.1 102019
09:00−30вюв1298100 0.4 1019110
12:00−28в2287100 0.1 1016454
15:00−26ссв3383100 0.2 1014705
18:00−28ссз3496100 0.1 101548
21:00−31сз3497100 0.1 101824